Find Resurs-P No. 5

NORAD ID: 62430 Int'l Des: 2024-250 Owner: TSSKBP Country: RU operational
LEOCIRCULARRETROGRADESSO

Live Position

Loading 3D Globe...

About Resurs-P No. 5

Description loading...

Upcoming Passes

Passes for default location (London). Set your location on the main map for personalized predictions.

Altitude History

Loading altitude history...

Two-Line Element Set

1 62430U 24250A 26104.88132186 .00002172 00000-0 70263-4 0 9992
2 62430 97.2778 31.3004 0000844 110.1332 250.0002 15.33133442 72855
Epoch: Apr 14, 2026 • Age: 7 hours

Current Status

Altitude 479.4 km
Velocity 7.63 km/s
Sub-Earth Point 81.48°N, 73.48°E
Launch Date Dec 25, 2024
Age 1.3 years
Type other

Technical Details

Classification Payload
Mass 6000.00 kg
Dry Mass 5800.00 kg
Total Mass 6000.00 kg
Length 7.90 m
Diameter 2.70 m
Span 13.00 m
Shape Cy+2 pan
Manufacturer TSSKBP
Bus Type Resurs P
Phase Status In Orbit
Owner/State TSSKBP/RU

Most Searched